User: anonymous   Login
Location: Fort Wayne
(41.1310°N, 85.1290°W)
Time: 00:31:27
(UTC-04:00)
Language:

COSMOS 2428 - Orbit

View from above orbital plane
View from above orbital plane
View from above satellite
View from above satellite

Ground track
Ground track

The orbit data is extracted from the following two-line orbital elements,

1 31792U 07029A   17267.85744491  .00000353  00000-0  21766-3 0  9991
2 31792  70.9284 202.8898 0007290 146.1441 214.0146 14.12338081528149
Epoch (UTC): 24 September 2017 20:34:43
Eccentricity: 0.0007290
inclination: 70.9284°
perigee height: 846 km
apogee height: 856 km
right ascension of ascending node: 202.8898°
argument of perigee: 146.1441°
revolutions per day: 14.12338081
mean anomaly at epoch: 214.0146°
orbit number at epoch: 52814

The dashed part of the orbit path shows where the satellite is in the earth's shadow,  

DLR